Simultaneous Nadir Overpasses (SNOs) Predictions

Prediction of SNOs between GOES-15 and NPP Satellite Orbit:

Table of predicted SNOs for the next 14.0 days since TLE Epoch: 11/2/2024
Index Date Time (GOES-15) GOES-15 Lat,Lon NPP Lat,Lon Distance(km) Time Diff (sec)
1 11/03/2024 09:20:33 -0.12, 61.43 -0.25, 60.77 75.58 80
2 11/04/2024 09:04:28 -0.14, 61.45 0.72, 65.31 440.13 80
3 11/05/2024 21:26:16 0.11, 61.45 0.41, 60.03 161.03 80
4 11/06/2024 21:04:51 0.12, 61.47 -0.57, 64.57 353.30 80
5 11/08/2024 09:26:47 -0.09, 61.53 -0.58, 59.26 258.21 80
6 11/09/2024 09:10:41 -0.10, 61.55 0.41, 63.80 256.93 80
7 11/10/2024 21:32:29 0.07, 61.54 0.74, 58.53 342.74 80
8 11/11/2024 21:11:03 0.09, 61.57 -0.26, 63.07 171.50 80
9 11/13/2024 09:32:58 -0.06, 61.65 -0.92, 57.77 442.00 80
10 11/14/2024 09:16:52 -0.08, 61.67 0.04, 62.32 73.02 80
